Terminal Aerodrome Forecast
Issued by NWS Aberdeen, SD

Home | Current Version | Previous Version | Text Only | Print | Product List | Glossary On
Versions: 1 2 3 4 5 6 7 8 9 10 11 12 13 14 15 16 17 18 19 20 21 22 23 24 25 26 27 28 29 30 31 32 33 34 35 36 37 38 39 40 41 42 43 44 45 46 47 48 49 50
703
FTUS43 KABR 230113 AAA
TAFABR
TAF AMD
KABR 230113Z 2301/2324 27007KT P6SM OVC020
     FM230400 VRB05KT P6SM OVC015
     FM231300 VRB05KT 4SM BR OVC007
     FM231900 11008KT P6SM OVC025=

USA.gov is the U.S. government's official web portal to all federal, state and local government web resources and services.